NR6G-5 Weather Reports


time (UTC)temp
F
wind
direction
speed
knots
gust
knots
rain 1hr
in
rain 24hr
in
rain mn
in
humidity
%
barometer
mb
20260507021453 77 228 3.5 6.1 0.00 0.00 0.00 45 1015.3
20260507020953 77 218 3.5 6.1 0.00 0.00 0.00 43 1015.3
20260507020454 77 206 4.3 6.1 0.00 0.00 0.00 43 1015.2
20260507015955 77 213 3.5 6.1 0.00 0.00 0.00 43 1015.2
20260507015453 78 202 3.5 6.1 0.00 0.00 0.00 43 1015.3
20260507014954 78 214 4.3 6.1 0.00 0.00 0.00 43 1015.2
20260507014453 78 219 4.3 6.1 0.00 0.00 0.00 42 1015.2
20260507013952 78 212 3.5 7.0 0.00 0.00 0.00 41 1015.2
20260507013452 78 229 4.3 7.0 0.00 0.00 0.00 41 1015.2
20260507012953 78 215 3.5 6.1 0.00 0.00 0.00 40 1015.2
20260507012453 78 210 4.3 6.1 0.00 0.00 0.00 41 1015.2
20260507011953 79 221 3.5 5.2 0.00 0.00 0.00 40 1015.2
20260507011453 78 213 3.5 7.0 0.00 0.00 0.00 41 1015.2
20260507010953 78 187 3.5 7.0 0.00 0.00 0.00 40 1015.2
20260507010358 78 206 2.6 7.0 0.00 0.00 0.00 41 1015.2
20260507005858 79 215 3.5 7.8 0.00 0.00 0.00 40 1015.3
20260507005400 79 185 5.2 7.8 0.00 0.00 0.00 41 1015.2
20260507004858 79 241 3.5 6.1 0.00 0.00 0.00 40 1015.2
20260507003918 79 200 5.2 8.7 0.00 0.00 0.00 40 1015.2
20260507003419 79 223 3.5 7.0 0.00 0.00 0.00 40 1015.2
20260507002917 78 214 3.5 7.8 0.00 0.00 0.00 40 1015.2
20260507002418 78 238 4.3 10.4 0.00 0.00 0.00 40 1015.2
20260507001917 79 272 4.3 10.4 0.00 0.00 0.00 40 1015.3
20260507001420 79 200 2.6 7.8 0.00 0.00 0.00 40 1015.3
20260507000918 79 214 5.2 10.4 0.00 0.00 0.00 40 1015.2
20260507000417 79 195 3.5 10.4 0.00 0.00 0.00 40 1015.2
20260506235918 79 227 7.0 9.6 0.00 0.00 0.00 40 1015.2
20260506235417 79 245 5.2 7.8 0.00 0.00 0.00 40 1015.2
20260506234917 79 209 5.2 7.8 0.00 0.00 0.00 40 1015.2
20260506234417 79 171 5.2 7.8 0.00 0.00 0.00 40 1015.2
20260506233917 78 194 4.3 8.7 0.00 0.00 0.00 41 1015.2
20260506233417 78 232 3.5 8.7 0.00 0.00 0.00 40 1015.3
20260506232917 78 184 6.1 8.7 0.00 0.00 0.00 41 1015.4
20260506232419 78 213 4.3 7.8 0.00 0.00 0.00 41 1015.4
20260506231917 78 228 4.3 10.4 0.00 0.00 0.00 41 1015.4
20260506231417 78 272 7.0 10.4 0.00 0.00 0.00 41 1015.5
20260506230919 78 241 7.8 10.4 0.00 0.00 0.00 43 1015.5
20260506225957 78 258 4.3 8.7 0.00 0.00 0.00 42 1015.6
20260506225458 78 300 4.3 7.0 0.00 0.00 0.00 41 1015.6
20260506224956 78 315 2.6 7.0 0.00 0.00 0.00 42 1015.7
20260506224400 77 232 1.7 7.0 0.00 0.00 0.00 43 1015.7
20260506223901 78 244 4.3 7.0 0.00 0.00 0.00 43 1015.8
20260506223401 77 0 0.0 9.6 0.00 0.00 0.00 43 1015.8
20260506222858 77 276 3.5 9.6 0.00 0.00 0.00 44 1016.0
20260506222319 77 259 4.3 7.8 0.00 0.00 0.00 43 1016.0
20260506221321 76 262 5.2 9.6 0.00 0.00 0.00 44 1016.1
20260506220821 76 282 3.5 8.7 0.00 0.00 0.00 45 1016.2
20260506220320 76 256 3.5 7.8 0.00 0.00 0.00 45 1016.3
20260506215819 77 295 1.7 8.7 0.00 0.00 0.00 44 1016.4
20260506215321 76 303 6.1 9.6 0.00 0.00 0.00 45 1016.4
20260506214820 76 256 6.1 9.6 0.00 0.00 0.00 46 1016.5
20260506214320 76 309 3.5 9.6 0.00 0.00 0.00 46 1016.6
20260506213820 76 319 3.5 7.8 0.00 0.00 0.00 45 1016.6
20260506213317 76 237 3.5 7.8 0.00 0.00 0.00 46 1016.7
20260506212816 76 210 3.5 6.1 0.00 0.00 0.00 46 1016.7
20260506212316 75 0 0.0 5.2 0.00 0.00 0.00 47 1016.7
20260506211817 74 207 1.7 7.8 0.00 0.00 0.00 47 1016.8
20260506211317 74 245 3.5 9.6 0.00 0.00 0.00 47 1016.9
20260506210816 74 265 5.2 9.6 0.00 0.00 0.00 47 1016.9
20260506210319 73 333 1.7 7.0 0.00 0.00 0.00 49 1016.9
20260506205816 73 277 3.5 9.6 0.00 0.00 0.00 49 1017.0
20260506205316 74 275 2.6 9.6 0.00 0.00 0.00 48 1017.0
20260506204817 74 340 2.6 7.8 0.00 0.00 0.00 48 1017.0
20260506204316 73 0 0.0 7.8 0.00 0.00 0.00 50 1017.0
20260506203817 73 266 3.5 8.7 0.00 0.00 0.00 49 1017.1
20260506203317 73 301 4.3 8.7 0.00 0.00 0.00 49 1017.2
20260506202817 73 319 3.5 7.8 0.00 0.00 0.00 49 1017.2
20260506202318 73 316 2.6 7.8 0.00 0.00 0.00 49 1017.2
20260506201436 73 320 5.2 7.8 0.00 0.00 0.00 50 1017.4
20260506200936 73 13 2.6 7.8 0.00 0.00 0.00 50 1017.5
20260506195936 72 10 2.6 7.8 0.00 0.00 0.00 50 1017.7
20260506195436 72 17 5.2 7.8 0.00 0.00 0.00 50 1017.7
20260506194937 72 53 2.6 7.0 0.00 0.00 0.00 50 1017.7
20260506194436 72 355 3.5 7.8 0.00 0.00 0.00 51 1017.8
20260506193935 72 10 4.3 7.8 0.00 0.00 0.00 51 1017.9
20260506193436 71 343 4.3 7.0 0.00 0.00 0.00 52 1017.9
20260506192939 71 189 0.9 7.8 0.00 0.00 0.00 52 1018.1
20260506192436 71 296 1.7 7.8 0.00 0.00 0.00 54 1018.2
20260506191936 70 282 2.6 4.3 0.00 0.00 0.00 54 1018.3
20260506191436 70 80 1.7 7.0 0.00 0.00 0.00 54 1018.3
20260506190935 70 157 2.6 7.0 0.00 0.00 0.00 55 1018.4
20260506190253 69 192 3.5 6.1 0.00 0.00 0.00 55 1018.6
20260506185754 69 244 2.6 7.0 0.00 0.00 0.00 56 1018.6
20260506185253 68 223 2.6 7.8 0.00 0.00 0.00 56 1018.6
20260506184753 68 230 2.6 7.8 0.00 0.00 0.00 56 1018.7
20260506184253 68 251 2.6 10.4 0.00 0.00 0.00 58 1018.8
20260506183755 68 241 6.1 10.4 0.00 0.00 0.00 60 1018.7
20260506183253 68 251 1.7 7.0 0.00 0.00 0.00 62 1018.8
20260506182253 67 211 5.2 7.0 0.00 0.00 0.00 62 1019.0
20260506180430 66 246 4.3 7.8 0.00 0.00 0.00 65 1019.2
20260506175931 66 288 1.7 7.8 0.00 0.00 0.00 64 1019.2
20260506175430 66 260 2.6 7.8 0.00 0.00 0.00 66 1019.2
20260506174930 66 223 4.3 7.8 0.00 0.00 0.00 66 1019.3
20260506174430 66 207 1.7 7.0 0.00 0.00 0.00 68 1019.3
20260506173931 65 183 2.6 7.8 0.00 0.00 0.00 68 1019.4
20260506173430 65 207 5.2 7.8 0.00 0.00 0.00 68 1019.4
20260506172930 65 211 2.6 6.1 0.00 0.00 0.00 68 1019.4
20260506172430 65 234 2.6 7.8 0.00 0.00 0.00 68 1019.4
20260506171930 64 167 4.3 7.8 0.00 0.00 0.00 70 1019.5
20260506171430 64 194 0.9 7.0 0.00 0.00 0.00 70 1019.5
20260506170932 63 200 1.7 7.0 0.00 0.00 0.00 70 1019.6
20260506170430 63 196 4.3 7.0 0.00 0.00 0.00 70 1019.6
20260506165930 63 197 3.5 7.0 0.00 0.00 0.00 71 1019.6
20260506165431 63 196 3.5 7.8 0.00 0.00 0.00 72 1019.6
20260506164930 63 201 5.2 7.8 0.00 0.00 0.00 72 1019.6
20260506164432 62 202 2.6 8.7 0.00 0.00 0.00 72 1019.6
20260506163931 62 195 5.2 8.7 0.00 0.00 0.00 73 1019.6
20260506163430 62 166 1.7 6.1 0.00 0.00 0.00 72 1019.5
20260506162931 62 191 1.7 4.3 0.00 0.00 0.00 73 1019.6
20260506162430 62 191 1.7 10.4 0.00 0.00 0.00 73 1019.6
20260506161930 62 185 3.5 10.4 0.00 0.00 0.00 72 1019.6
20260506161430 62 203 5.2 9.6 0.00 0.00 0.00 72 1019.6
20260506160916 62 149 2.6 7.0 0.00 0.00 0.00 72 1019.6
20260506155915 61 160 3.5 7.0 0.00 0.01 0.00 73 1019.7
20260506155418 61 150 3.5 7.0 0.00 0.01 0.00 74 1019.7
20260506154917 61 185 3.5 7.0 0.00 0.02 0.00 74 1019.7
20260506154415 60 162 2.6 7.0 0.00 0.03 0.00 74 1019.8
20260506153915 60 169 3.5 7.0 0.00 0.03 0.00 75 1019.8
20260506153417 60 140 2.6 7.8 0.00 0.03 0.00 75 1019.8
20260506152916 59 162 0.9 7.8 0.00 0.03 0.00 75 1019.8
20260506152415 59 150 2.6 7.0 0.00 0.03 0.00 75 1019.8
20260506151915 59 152 2.6 5.2 0.00 0.04 0.00 76 1019.8
20260506151417 59 184 3.5 5.2 0.00 0.04 0.00 77 1019.7
20260506150917 59 185 2.6 5.2 0.00 0.04 0.00 76 1019.7
20260506150417 58 178 1.7 4.3 0.00 0.04 0.00 76 1019.7
20260506145917 58 163 1.7 4.3 0.00 0.04 0.00 76 1019.6
20260506145029 58 0 0.0 3.5 0.00 0.04 0.00 76 1019.7
20260506144528 58 152 0.9 3.5 0.00 0.04 0.00 76 1019.6
20260506144030 58 0 0.0 2.6 0.00 0.04 0.00 77 1019.6
20260506143530 58 0 0.0 1.7 0.00 0.04 0.00 78 1019.5
20260506143028 58 0 0.0 1.7 0.00 0.04 0.00 79 1019.5
20260506142530 57 0 0.0 0.0 0.00 0.04 0.00 80 1019.5
20260506142028 57 0 0.0 0.9 0.00 0.04 0.00 81 1019.5
20260506141528 56 0 0.0 0.9 0.00 0.04 0.00 83 1019.4
20260506141028 56 0 0.0 1.7 0.00 0.04 0.00 83 1019.4
20260506140528 56 0 0.0 2.6 0.00 0.04 0.00 83 1019.3
20260506140030 55 0 0.0 2.6 0.00 0.04 0.00 85 1019.3
20260506135528 54 0 0.0 2.6 0.00 0.04 0.00 85 1019.2
20260506135029 54 0 0.0 2.6 0.00 0.04 0.00 87 1019.1
20260506134528 53 0 0.0 3.5 0.00 0.04 0.00 88 1019.0
20260506134028 53 125 0.9 3.5 0.00 0.04 0.00 89 1018.9
20260506133528 52 0 0.0 3.5 0.00 0.04 0.00 89 1018.9
20260506133029 52 141 0.9 3.5 0.00 0.04 0.00 90 1018.8
20260506132528 51 131 0.9 2.6 0.00 0.04 0.00 91 1018.8
20260506132029 51 126 0.9 4.3 0.00 0.04 0.00 92 1018.7
20260506131528 51 133 0.9 4.3 0.00 0.04 0.00 92 1018.8
20260506131028 50 0 0.0 1.7 0.00 0.04 0.00 91 1018.8
20260506130528 51 0 0.0 2.6 0.00 0.04 0.00 91 1018.7
20260506130028 51 0 0.0 3.5 0.00 0.04 0.00 91 1018.6
20260506125528 51 100 0.9 3.5 0.00 0.04 0.00 91 1018.6
20260506125028 51 96 2.6 3.5 0.00 0.04 0.00 92 1018.5
20260506124528 51 103 1.7 3.5 0.00 0.04 0.00 91 1018.5
20260506124030 51 105 1.7 3.5 0.00 0.04 0.00 90 1018.4
20260506123529 51 0 0.0 3.5 0.00 0.04 0.00 91 1018.5
20260506123028 51 138 0.9 4.3 0.00 0.04 0.00 91 1018.4
20260506122528 51 144 1.7 4.3 0.00 0.04 0.00 91 1018.4
20260506122030 52 153 2.6 5.2 0.00 0.04 0.00 91 1018.4
20260506121528 52 147 2.6 6.1 0.00 0.04 0.00 91 1018.2
20260506121029 52 136 2.6 6.1 0.00 0.04 0.00 91 1018.2
20260506120528 52 132 2.6 4.3 0.00 0.04 0.00 92 1018.1
20260506120030 52 142 1.7 3.5 0.00 0.04 0.00 91 1018.2
20260506115121 52 133 1.7 4.3 0.00 0.04 0.00 91 1018.2
20260506114619 52 122 0.9 5.2 0.00 0.04 0.00 91 1018.2
20260506114120 51 138 1.7 5.2 0.00 0.04 0.00 91 1018.1
20260506113621 51 195 0.9 2.6 0.00 0.04 0.00 87 1018.1
20260506113120 52 0 0.0 2.6 0.00 0.04 0.00 87 1018.1
20260506112622 52 0 0.0 2.6 0.00 0.04 0.00 89 1018.0
20260506112121 52 0 0.0 1.7 0.00 0.04 0.00 88 1018.0
20260506111619 53 0 0.0 0.0 0.00 0.04 0.00 87 1018.0
20260506111119 54 0 0.0 1.7 0.00 0.04 0.00 86 1018.0
20260506110621 54 0 0.0 3.5 0.00 0.04 0.00 88 1017.9
20260506110121 54 261 0.9 3.5 0.00 0.04 0.00 88 1017.8
20260506105620 54 0 0.0 1.7 0.00 0.04 0.00 89 1017.8
20260506105119 54 0 0.0 1.7 0.00 0.04 0.00 89 1017.7
20260506104620 54 0 0.0 0.9 0.00 0.04 0.00 89 1017.8
20260506104119 54 0 0.0 0.0 0.00 0.04 0.00 89 1017.7
20260506103139 54 0 0.0 0.0 0.00 0.04 0.00 89 1017.7
20260506102639 54 0 0.0 0.0 0.00 0.04 0.00 89 1017.7
20260506102138 54 0 0.0 0.0 0.00 0.04 0.00 89 1017.6
20260506101642 54 0 0.0 0.0 0.00 0.04 0.00 89 1017.6
20260506101143 54 0 0.0 0.0 0.00 0.04 0.00 89 1017.5
20260506100644 53 0 0.0 0.0 0.00 0.04 0.00 90 1017.5
20260506100142 53 0 0.0 0.9 0.00 0.04 0.00 89 1017.4
20260506095643 53 0 0.0 1.7 0.00 0.04 0.00 89 1017.3
20260506095141 53 0 0.0 1.7 0.00 0.04 0.00 90 1017.3
20260506094639 53 0 0.0 2.6 0.00 0.04 0.00 90 1017.4
20260506094139 53 256 0.9 2.6 0.00 0.04 0.00 89 1017.4
20260506093638 53 256 0.9 1.7 0.00 0.04 0.00 89 1017.3
20260506093138 53 0 0.0 1.7 0.00 0.04 0.00 88 1017.3
20260506092640 54 0 0.0 2.6 0.00 0.04 0.00 88 1017.2
20260506092139 54 0 0.0 2.6 0.00 0.04 0.00 87 1017.2
20260506091140 55 0 0.0 3.5 0.00 0.04 0.00 84 1017.2
20260506090639 56 248 0.9 4.3 0.00 0.04 0.00 82 1017.2
20260506090138 56 66 2.6 4.3 0.00 0.04 0.00 81 1017.2
20260506085641 57 69 1.7 4.3 0.00 0.04 0.00 80 1017.2
20260506085140 57 74 1.7 3.5 0.00 0.04 0.00 80 1017.2
20260506084638 57 77 2.6 4.3 0.00 0.04 0.00 81 1017.2
20260506084138 57 74 2.6 4.3 0.00 0.04 0.00 81 1017.2
20260506083639 57 77 2.6 4.3 0.00 0.04 0.00 81 1017.2
20260506083138 57 75 2.6 6.1 0.00 0.04 0.00 81 1017.1
20260506082638 57 73 3.5 7.0 0.00 0.04 0.00 81 1017.1
20260506082139 56 68 3.5 7.0 0.00 0.04 0.00 82 1017.1
20260506081638 56 69 2.6 6.1 0.00 0.04 0.00 82 1017.1
20260506081138 56 67 3.5 6.1 0.00 0.04 0.00 82 1017.2
20260506080638 56 66 3.5 5.2 0.00 0.04 0.00 82 1017.1
20260506073156 55 72 3.5 4.3 0.00 0.04 0.00 85 1016.9
20260506072655 55 72 2.6 4.3 0.00 0.04 0.00 85 1016.8
20260506072155 54 72 2.6 5.2 0.00 0.04 0.00 86 1016.8
20260506071658 54 69 3.5 6.1 0.00 0.04 0.00 85 1016.8
20260506071156 54 68 3.5 6.1 0.00 0.04 0.00 85 1016.8
20260506070654 54 69 3.5 7.0 0.00 0.04 0.00 85 1016.6
20260506070156 54 70 4.3 7.0 0.00 0.04 0.00 86 1016.7
20260506061029 54 71 2.6 4.3 0.00 0.04 0.04 87 1016.2
20260506060527 54 69 3.5 4.3 0.00 0.04 0.04 87 1016.2
20260506041743 56 70 2.6 5.2 0.00 0.04 0.04 84 1015.3
20260506041243 57 66 3.5 5.2 0.00 0.04 0.04 84 1015.3
20260506040743 57 69 3.5 4.3 0.00 0.04 0.04 84 1015.2
20260506040244 57 71 2.6 5.2 0.00 0.04 0.04 85 1015.2
20260506035743 57 65 3.5 5.2 0.00 0.04 0.04 85 1015.0
20260506035243 57 64 2.6 4.3 0.00 0.04 0.04 86 1015.1
20260506034743 57 66 2.6 4.3 0.00 0.04 0.04 86 1015.0
20260506034244 57 64 2.6 4.3 0.00 0.04 0.04 85 1015.0
20260506033743 56 66 1.7 3.5 0.00 0.04 0.04 86 1014.8
20260506033245 56 67 2.6 5.2 0.00 0.04 0.04 85 1014.9
20260506032743 57 63 3.5 5.2 0.00 0.04 0.04 85 1014.8
20260506032244 57 62 4.3 5.2 0.00 0.04 0.04 84 1014.8
20260506031743 57 66 2.6 3.5 0.00 0.04 0.04 83 1014.7
20260506031244 58 75 1.7 2.6 0.00 0.04 0.04 82 1014.6
20260506030312 59 0 0.0 0.0 0.00 0.04 0.04 79 1014.4
20260506025811 60 0 0.0 0.0 0.00 0.04 0.04 78 1014.4
20260506025311 60 0 0.0 0.0 0.00 0.04 0.04 78 1014.3
20260506024810 60 0 0.0 1.7 0.00 0.04 0.04 78 1014.3
20260506024310 60 0 0.0 1.7 0.00 0.04 0.04 77 1014.2
20260506023811 60 0 0.0 2.6 0.00 0.04 0.04 76 1014.2
20260506023310 61 0 0.0 3.5 0.00 0.04 0.04 76 1014.2
20260506022812 61 85 1.7 3.5 0.00 0.04 0.04 75 1014.2
20260506021811 61 92 2.6 3.5 0.00 0.04 0.04 75 1014.1